Theta_e
344 346 344 345 347 349 353 353 357 360 360 356 355 360 362 363 365 366 367 365 364 363 363 357 352 356 359 360 358 357 357 355 355 355 352 350 346 347 348 348 349 349 349 350 351 352 352 354 354 351 351 351 351 350 350 348 347 346 344 343 343 342 340 338 339 343 347 348 349 349 348 347 347 347 347 346 347 350 351 351 352 352 351 351 353 352 350 347 347 348 348 347 346 346 345 345 347
344 346 344 347 348 351 359 355 358 360 357 355 356 363 364 365 365 366 367 366 365 361 358 353 356 362 360 359 356 356 356 352 352 352 350 348 348 349 347 348 349 349 350 350 351 352 354 355 353 352 352 352 352 351 350 349 348 346 344 343 343 342 340 338 342 347 348 349 349 349 349 348 348 348 348 348 349 351 352 352 353 352 351 351 352 353 352 349 347 348 348 346 345 346 345 346 346
344 346 345 348 349 353 359 356 357 357 354 354 359 367 366 367 367 366 366 365 361 356 355 353 359 363 359 360 358 358 355 349 348 348 348 349 350 349 348 349 349 349 349 351 352 352 354 354 353 352 352 352 352 352 351 350 349 347 346 346 345 343 340 340 345 349 349 349 349 349 350 350 350 350 349 349 350 351 352 353 353 352 351 350 351 353 353 351 349 347 347 347 346 346 346 345 345
344 346 346 350 354 356 362 362 361 356 355 355 358 368 367 367 367 365 365 361 357 354 355 354 358 358 361 364 357 358 355 349 348 348 349 349 348 348 348 349 350 349 349 351 352 352 353 352 352 351 351 350 351 350 349 348 348 347 347 347 345 342 339 342 347 349 350 350 350 349 350 351 351 351 351 349 350 351 351 352 352 352 352 351 351 352 353 353 350 347 347 348 346 347 347 346 346
345 347 347 351 358 360 363 365 363 358 358 359 361 369 367 366 366 364 363 360 358 357 356 355 359 356 358 359 353 359 356 349 349 348 349 348 346 346 348 350 351 350 350 351 351 353 352 351 350 350 349 349 349 348 347 347 347 347 347 345 343 340 341 345 349 350 350 350 349 350 351 352 352 352 352 351 351 351 351 352 352 352 352 352 352 352 352 351 351 349 348 349 348 348 348 348 348
346 348 348 351 357 357 361 362 360 358 360 365 367 371 366 364 365 362 361 359 361 361 360 358 357 355 355 352 350 355 351 349 349 347 349 348 346 346 348 351 352 352 351 351 351 351 350 349 349 348 347 347 347 346 346 347 346 345 343 342 340 341 345 349 350 350 350 350 350 351 351 352 352 352 353 352 352 351 351 352 353 352 352 353 352 351 351 349 349 349 349 350 350 350 349 347 349
347 351 353 356 358 356 362 360 357 361 363 365 369 371 367 364 364 361 360 357 360 362 361 357 353 357 358 352 352 351 348 350 348 347 348 348 346 346 349 351 352 352 351 351 350 348 348 347 347 347 347 347 347 347 346 346 345 344 342 341 342 346 350 351 351 350 351 351 351 352 351 352 352 353 353 353 353 352 351 352 352 352 352 352 352 351 351 350 349 349 349 351 350 350 349 347 347
348 355 357 361 364 361 363 360 359 364 364 363 365 367 364 364 363 360 360 359 360 360 358 354 352 363 359 352 356 352 349 349 347 348 348 348 347 347 349 351 351 351 351 351 349 348 348 347 348 349 348 349 349 348 347 345 345 343 343 345 347 351 352 351 351 350 351 351 351 352 351 352 352 353 353 353 352 351 352 351 351 352 352 351 351 350 349 349 349 349 351 352 350 350 351 348 347
351 356 358 362 365 363 361 361 363 366 364 363 362 363 362 363 363 360 361 361 361 360 357 353 356 366 358 354 356 351 351 350 348 349 349 348 347 348 350 350 350 350 351 350 349 349 349 349 349 350 350 350 351 349 346 346 346 345 346 348 351 352 353 352 351 351 352 351 351 351 351 352 352 353 353 353 352 350 351 351 350 351 350 349 349 348 347 348 349 350 352 352 350 350 351 350 350
354 356 359 363 364 361 358 361 364 366 364 362 363 363 362 362 362 361 362 363 361 359 355 354 358 361 355 355 355 351 352 350 349 351 350 349 348 349 350 350 350 349 350 350 350 350 350 351 350 351 351 350 351 350 348 348 349 349 349 350 352 352 353 353 351 352 352 351 350 351 351 352 352 352 353 353 352 351 350 350 351 351 349 348 348 347 347 347 350 351 352 352 351 351 351 351 350
358 358 359 362 361 357 357 360 363 367 363 361 363 361 361 361 361 363 365 364 359 357 354 355 357 354 353 355 355 353 352 350 350 351 350 349 348 350 350 351 350 349 350 350 351 351 351 352 351 351 350 351 351 351 350 350 349 350 352 351 352 353 353 353 352 352 352 351 351 351 352 352 352 351 351 351 353 353 351 351 351 350 349 349 348 347 345 346 350 351 351 352 352 351 351 351 350
360 361 360 362 360 358 360 361 363 366 364 363 363 360 360 361 361 362 366 364 357 357 355 356 355 352 355 356 355 353 351 351 351 351 350 350 350 350 351 352 351 350 350 350 351 351 352 352 352 352 352 353 352 351 350 350 350 351 352 352 353 353 353 353 352 352 352 352 351 352 352 351 351 351 351 351 352 352 352 352 350 349 348 349 349 347 344 345 350 351 350 351 351 351 351 350 350
359 363 363 363 361 364 364 363 364 366 366 365 363 360 360 362 363 363 366 363 358 358 356 355 352 352 355 355 355 352 351 351 351 351 350 350 351 352 352 352 352 351 350 351 351 351 353 354 353 354 354 352 352 352 350 352 353 352 353 352 353 353 353 353 352 352 352 351 351 352 352 352 351 351 351 352 352 351 351 351 350 351 350 350 349 347 344 342 347 350 350 349 350 350 350 351 350
357 362 363 363 364 365 364 364 365 365 364 364 361 359 360 362 364 366 365 361 361 360 354 351 349 354 356 355 356 352 351 351 351 351 350 351 352 352 352 352 352 351 351 350 350 352 353 353 353 353 353 352 352 352 351 353 353 353 353 352 353 352 353 352 351 353 352 351 351 351 352 353 352 352 352 352 352 351 351 351 351 352 351 351 350 348 345 341 343 347 349 350 349 349 350 350 350
355 360 363 365 364 363 364 366 365 363 363 362 360 359 361 361 362 367 365 361 362 357 352 349 348 356 356 355 356 352 351 351 350 350 350 352 352 352 352 352 352 350 350 350 351 352 353 353 353 353 352 352 352 351 351 352 353 354 353 352 353 352 353 352 352 353 352 351 351 351 352 353 352 352 352 352 352 351 351 351 352 352 351 351 351 350 348 344 342 343 349 351 349 349 350 350 350
356 361 363 365 361 360 366 368 364 364 364 361 359 359 362 362 361 365 364 361 359 354 355 353 348 355 354 352 354 350 351 351 350 351 351 352 352 352 352 352 351 350 350 350 351 351 352 353 353 353 352 351 351 351 351 352 353 353 353 352 353 354 353 353 353 353 353 352 352 352 352 353 352 352 352 352 352 352 352 351 352 353 351 351 351 351 349 347 344 343 349 351 350 351 351 350 349
358 363 364 364 359 361 370 372 368 366 365 362 360 361 363 363 361 361 361 361 358 356 359 354 348 350 350 350 351 350 350 350 350 352 352 352 352 352 352 352 350 350 350 350 351 351 352 353 353 353 352 352 352 353 352 352 353 353 353 353 353 354 353 353 353 353 353 353 353 353 353 352 352 352 351 352 352 351 351 351 352 353 352 351 351 350 350 348 346 344 348 351 351 351 351 350 349
361 364 363 361 362 368 373 373 370 367 366 364 362 362 363 363 361 360 361 360 359 360 357 352 350 348 347 349 349 349 350 351 352 352 352 352 352 352 352 352 351 350 350 351 351 352 353 353 354 353 352 352 353 354 353 352 353 352 353 353 353 354 353 352 352 354 354 353 353 353 352 352 352 352 352 351 350 350 351 351 352 352 351 352 351 350 350 349 346 345 348 351 350 349 349 350 350
359 362 363 363 368 372 370 368 367 367 367 363 363 363 363 362 360 361 363 361 359 360 356 352 351 348 347 348 348 349 351 352 353 352 352 352 351 351 351 351 351 350 351 351 351 352 353 353 354 353 352 353 354 353 352 352 353 352 353 353 354 353 353 352 352 353 353 352 352 352 351 351 351 352 352 351 350 351 352 351 351 351 351 352 350 349 349 349 346 345 348 350 348 347 347 348 348
358 360 365 367 368 369 366 368 366 366 366 362 363 364 364 363 361 363 363 361 360 359 356 353 352 350 347 346 347 350 352 352 352 352 352 351 350 350 351 351 351 351 351 351 351 352 352 353 353 352 351 353 353 353 352 353 353 353 353 353 354 353 353 353 353 353 352 352 351 351 351 351 351 351 351 352 352 352 351 351 351 350 351 351 349 348 348 348 347 346 347 347 346 347 346 346 346
358 359 364 365 364 366 367 368 366 365 364 362 364 364 365 362 362 364 362 361 363 359 354 353 351 349 347 346 348 350 352 352 352 352 351 351 350 350 350 350 350 351 351 351 352 352 352 353 353 352 352 352 352 352 352 353 353 354 353 353 353 353 353 353 353 352 351 351 351 351 350 350 350 350 351 351 351 351 351 351 350 350 350 349 347 347 347 347 346 346 344 344 345 346 346 346 346
355 357 359 359 360 366 369 366 364 363 362 363 363 364 364 362 363 363 360 362 365 360 353 350 348 347 346 346 349 351 351 352 352 351 351 351 350 349 350 350 351 351 351 351 351 351 352 353 352 352 352 352 352 351 351 353 353 354 353 353 353 353 353 352 352 351 351 351 350 350 349 349 349 350 351 352 351 351 351 350 350 349 347 346 346 345 346 346 346 345 342 342 345 346 346 347 347
353 354 353 355 356 363 368 363 364 364 362 363 363 363 362 362 365 362 360 366 367 363 355 348 347 346 346 348 349 351 351 351 352 351 351 350 350 349 350 350 351 352 352 352 351 352 352 352 353 352 352 352 352 350 351 352 352 352 352 353 352 353 353 352 351 350 350 350 348 348 348 348 348 350 351 351 351 352 352 351 350 347 345 345 345 345 345 346 345 344 343 344 345 347 347 347 347
351 353 350 353 355 362 366 361 365 366 363 362 361 362 363 364 366 361 362 367 366 365 357 347 347 346 346 349 349 350 351 351 351 351 351 350 350 349 350 350 351 351 352 352 352 352 352 352 353 352 352 352 352 350 350 352 351 351 352 352 352 352 352 350 349 349 349 348 347 347 346 346 347 349 351 351 351 351 352 351 349 347 345 345 344 344 344 346 346 345 345 346 347 348 348 348 348
348 350 348 347 353 362 363 362 365 365 364 362 361 363 364 365 364 361 364 366 363 363 355 347 347 346 347 349 349 350 350 351 351 351 351 350 349 349 350 350 351 351 352 352 352 352 351 352 353 352 352 352 351 350 350 351 351 352 352 351 352 351 349 348 348 349 348 348 347 347 346 346 347 349 350 350 350 350 350 349 347 346 346 346 345 344 344 346 347 347 347 347 348 350 349 349 348
347 346 346 343 351 363 362 363 365 363 362 360 362 365 364 362 360 362 364 363 362 361 354 349 347 346 348 349 349 350 350 350 351 351 351 350 349 349 350 350 350 351 351 352 352 351 351 352 352 352 352 351 350 350 349 350 351 352 352 351 351 350 348 347 348 349 348 348 347 347 346 347 348 348 348 349 349 349 348 346 345 345 346 347 348 347 346 346 347 347 348 348 349 350 349 348 347
340 337 339 338 347 361 361 363 364 362 362 361 363 365 362 359 361 368 366 360 361 361 356 349 348 347 348 349 349 350 350 350 351 351 351 350 349 349 349 350 350 351 351 352 352 351 351 352 352 351 351 351 350 350 350 350 350 350 351 350 350 349 347 347 349 349 348 347 347 347 347 348 349 348 347 348 349 348 347 345 344 344 346 348 349 349 348 347 347 347 348 348 349 349 347 347 347
335 332 333 343 352 360 360 363 364 362 363 361 360 360 362 359 364 371 365 360 360 361 357 349 349 349 347 349 349 349 350 350 351 351 351 350 349 349 349 350 350 351 351 351 351 351 351 351 351 350 350 350 349 349 349 349 349 349 349 349 349 348 347 348 349 349 348 347 348 347 348 349 349 348 347 347 347 347 346 345 345 346 348 349 349 349 349 349 348 347 347 348 349 348 348 349 347
336 329 334 354 360 360 362 364 362 361 362 360 358 360 364 363 364 367 361 360 361 360 358 350 349 348 347 348 348 349 349 349 351 350 350 350 349 349 349 349 350 350 351 351 351 351 351 352 351 350 349 349 348 349 349 349 348 347 347 348 348 348 347 348 350 350 348 348 348 348 348 349 349 349 348 348 348 348 348 347 347 347 349 349 349 349 349 349 348 347 347 348 349 349 349 350 349
332 330 348 366 363 361 362 363 361 360 360 359 356 357 365 367 363 362 359 358 360 360 358 351 349 349 347 348 347 348 349 349 350 350 350 350 349 349 349 349 350 350 351 351 351 351 351 351 351 351 350 348 348 348 349 349 348 347 346 347 348 348 347 348 350 351 349 348 349 349 349 349 350 350 350 350 350 350 350 350 349 349 348 349 349 349 349 349 348 347 347 348 348 349 349 350 350
330 331 349 364 359 359 363 361 362 363 360 359 356 356 367 372 364 362 359 358 359 358 357 352 350 349 346 347 347 347 348 349 350 350 350 350 350 349 349 349 350 350 351 351 351 351 351 351 351 351 349 348 348 349 349 348 347 346 346 347 348 348 347 348 350 351 350 349 349 350 350 351 351 351 351 351 351 351 351 351 351 350 348 348 349 348 348 348 348 347 347 347 348 348 349 348 349
336 327 333 351 354 357 366 361 361 363 361 361 356 357 369 371 364 362 359 358 358 356 357 353 349 349 347 346 346 346 347 348 349 349 350 350 350 349 349 349 350 350 351 352 352 351 351 351 350 350 349 347 347 348 349 348 346 345 345 346 348 348 346 347 348 350 350 350 350 351 351 351 351 352 352 351 351 351 351 351 351 349 348 348 348 348 348 348 348 347 347 347 347 348 349 348 348
342 331 329 343 350 356 366 362 359 361 362 363 360 362 370 367 362 361 359 358 358 357 357 353 349 349 347 345 346 346 346 347 348 348 349 350 350 349 349 349 350 350 351 351 352 351 351 350 349 350 350 347 347 347 348 347 346 345 345 346 347 347 346 345 347 348 349 350 351 351 351 351 351 351 350 350 350 351 350 350 349 348 347 348 348 348 348 348 348 347 347 347 347 348 348 347 347
338 336 331 334 342 355 364 363 360 359 362 366 364 366 369 363 360 361 359 358 358 357 356 353 349 349 347 345 345 345 346 346 347 347 348 349 350 350 349 349 350 351 351 351 351 351 350 350 349 349 350 348 347 347 347 347 345 345 347 347 347 346 346 345 347 348 349 350 351 352 352 352 351 350 349 349 349 350 349 349 348 348 347 348 349 349 349 349 349 349 348 347 347 347 347 346 347
329 331 328 325 329 342 357 366 364 359 362 366 364 367 366 361 361 361 358 357 357 356 356 353 349 348 347 345 345 345 345 346 346 346 348 349 349 350 349 349 350 351 351 352 351 351 350 350 349 350 351 349 347 347 347 347 345 346 347 348 348 347 347 348 349 350 351 351 351 351 352 352 350 349 349 349 349 349 349 349 348 348 348 349 350 349 349 349 350 349 349 348 348 347 346 346 346
328 328 326 325 323 326 344 360 361 360 362 365 365 365 364 361 362 361 358 357 357 356 355 355 351 348 347 346 345 345 345 345 344 345 347 348 349 350 350 350 350 351 351 352 351 351 351 351 350 351 351 350 349 348 349 348 347 346 347 348 348 347 348 349 350 351 351 351 351 351 351 351 350 349 350 350 349 349 349 349 349 349 349 350 349 349 349 350 350 350 349 348 347 347 346 345 345
329 329 327 327 325 324 331 338 350 361 362 362 364 363 363 362 362 361 358 357 357 357 356 356 353 349 348 346 345 345 345 344 343 344 346 347 348 349 349 350 350 351 351 352 352 351 352 352 351 352 352 351 350 350 351 350 347 347 348 348 348 347 348 349 350 350 350 351 351 351 352 351 349 349 350 350 349 349 349 350 350 351 350 349 349 349 350 350 350 351 350 349 348 347 347 346 346
329 329 328 326 324 327 329 327 342 358 360 362 362 362 364 363 362 361 358 358 358 357 356 355 354 350 349 347 346 345 345 344 343 344 345 346 347 348 349 350 350 351 351 352 352 351 351 352 352 351 351 352 351 350 350 350 347 346 347 347 348 348 348 349 350 350 350 351 351 351 352 351 350 350 351 350 349 349 349 350 350 350 349 349 350 350 351 352 352 352 351 350 349 348 347 347 347
329 328 326 325 327 329 328 330 346 356 359 364 363 361 363 363 363 361 359 359 358 356 355 354 354 352 350 348 347 346 345 346 344 343 344 345 346 347 349 350 351 351 351 351 351 351 352 352 352 351 352 352 352 351 350 349 347 346 347 348 348 348 349 349 350 350 351 351 351 352 353 352 351 351 351 350 350 350 350 350 349 350 350 350 350 351 351 352 352 352 352 351 350 349 349 349 347
330 329 325 326 328 327 324 330 352 360 356 361 363 361 363 365 365 362 359 358 357 356 355 355 355 353 351 349 348 347 346 347 346 343 344 345 346 347 348 349 351 351 351 351 351 351 352 352 352 352 352 352 352 352 350 350 349 348 348 349 349 349 349 350 350 351 352 352 352 353 353 353 352 351 351 351 351 351 351 351 350 350 350 352 352 352 352 352 352 352 352 352 350 351 350 348 346
332 330 327 327 327 328 324 329 355 364 355 358 363 358 359 365 366 365 361 358 358 356 355 356 356 354 352 352 351 350 348 347 347 345 344 344 345 346 347 349 350 350 351 350 351 351 351 352 352 352 352 351 351 351 352 352 351 350 350 350 350 350 350 351 352 352 352 352 353 353 353 353 352 352 352 351 351 352 352 352 352 350 351 353 353 353 353 352 352 351 351 351 350 351 349 346 345
330 330 330 329 329 331 325 330 350 353 348 354 358 351 355 363 363 364 363 361 360 358 357 356 355 355 354 353 352 351 350 348 346 346 344 344 345 346 347 348 349 350 350 350 351 351 351 351 352 352 352 352 351 351 352 353 352 351 351 351 350 351 352 352 352 353 352 353 353 353 353 354 353 353 353 353 352 352 352 352 352 351 351 353 354 353 354 354 353 352 351 350 350 351 349 344 344
327 332 332 329 332 330 325 328 334 336 341 351 351 348 352 357 357 362 363 362 363 359 358 357 354 355 354 353 352 350 350 348 347 347 345 344 344 346 346 347 349 349 349 350 350 351 351 351 351 352 352 352 351 352 352 352 352 352 351 350 350 351 351 352 351 352 352 353 354 353 353 354 353 353 353 354 354 354 353 352 352 352 352 353 354 353 353 353 354 353 351 350 349 350 350 346 344
328 333 331 331 334 330 327 326 322 326 334 343 351 350 346 349 353 359 362 362 364 362 359 358 355 355 354 353 352 350 349 348 348 347 346 344 344 344 346 347 348 349 349 349 349 350 351 351 351 351 351 352 351 351 352 352 351 351 350 350 350 350 351 351 351 352 352 353 353 353 353 354 353 352 353 354 354 355 355 354 353 353 353 353 353 352 352 353 354 354 351 349 348 350 351 348 345
331 331 329 331 331 328 328 322 320 324 322 328 348 350 342 349 356 358 361 362 364 364 361 359 357 355 354 353 351 350 349 348 348 348 346 345 344 344 345 346 347 348 348 349 349 349 350 350 350 351 351 351 351 351 352 351 350 349 350 350 350 351 350 350 351 352 352 353 353 353 353 354 353 352 352 353 354 355 356 356 355 355 354 352 352 351 351 352 353 353 351 349 348 349 351 350 347
329 327 326 327 327 328 327 322 320 322 317 320 339 345 341 349 356 356 359 360 360 363 361 358 357 355 355 353 352 350 349 348 348 347 347 346 344 344 344 345 346 347 348 348 348 349 349 350 350 351 351 350 350 350 351 351 350 348 349 349 350 350 350 349 350 351 352 352 352 352 353 354 353 352 351 352 353 355 357 357 356 355 355 353 351 349 349 350 352 352 351 349 349 349 350 351 348
324 325 325 324 330 332 335 337 325 317 320 322 334 344 340 341 351 356 358 359 359 360 359 358 357 355 355 353 352 351 349 349 348 347 347 346 345 344 343 345 346 346 347 347 348 348 349 349 350 351 351 350 350 349 350 350 349 348 348 349 350 350 350 349 349 351 352 352 353 353 353 353 353 353 351 351 353 354 356 356 355 355 356 355 352 348 347 350 352 352 352 350 349 348 350 350 349
321 327 324 321 329 330 330 336 323 313 323 328 334 345 337 335 346 350 350 353 353 357 360 358 356 355 355 354 351 351 350 348 348 348 347 346 346 344 343 344 345 346 347 347 347 347 348 349 350 350 350 350 350 349 349 349 348 348 349 349 350 350 350 349 349 350 351 352 352 352 353 353 353 353 352 352 352 353 355 356 355 356 356 356 354 349 346 348 352 353 352 351 350 348 349 350 350
321 328 326 320 325 324 320 325 321 318 324 324 330 343 340 338 342 339 340 340 339 348 354 355 356 354 354 354 352 351 350 349 347 347 347 347 346 344 343 344 344 345 346 346 347 346 347 348 349 350 350 350 350 349 348 347 347 348 349 350 351 350 350 349 349 350 351 351 351 352 353 353 353 352 353 353 352 351 353 354 355 355 355 355 355 351 348 349 352 352 352 352 351 350 350 350 349
318 324 324 320 323 322 320 325 323 320 322 317 323 339 340 335 334 336 342 339 336 341 345 348 353 354 353 353 352 352 350 350 348 347 346 346 346 344 343 343 344 345 345 345 346 346 346 348 349 349 350 350 349 348 348 348 348 349 350 351 350 350 350 349 349 349 350 351 350 352 352 351 351 351 351 350 349 349 350 351 353 355 355 355 355 354 352 351 351 352 352 352 353 353 352 351 350
316 322 322 322 326 325 324 327 323 319 320 317 321 336 337 328 329 336 340 341 342 343 342 344 347 351 354 352 351 352 350 350 349 348 347 346 345 344 343 343 343 344 345 345 345 345 346 347 348 349 349 349 349 349 349 348 349 349 350 351 350 350 350 349 349 349 350 350 350 350 350 350 349 350 349 348 346 347 347 349 352 354 355 356 355 355 354 352 352 352 353 353 354 355 354 353 351
316 320 321 320 323 325 324 327 329 323 320 320 321 329 332 326 327 335 338 342 344 342 342 344 343 347 353 353 352 351 351 351 349 348 348 346 344 344 344 343 343 343 344 344 344 345 346 347 348 349 349 349 349 349 349 349 349 350 350 350 350 350 349 349 349 349 349 350 349 349 349 349 349 348 349 347 346 345 345 349 353 353 354 356 356 355 354 353 353 353 353 354 354 355 355 355 353
320 321 320 318 319 321 320 322 330 326 318 320 320 320 328 327 323 331 341 345 344 342 341 342 342 345 349 353 354 351 351 351 350 350 349 347 344 343 344 343 342 343 343 343 344 344 345 346 347 348 349 349 349 349 349 349 349 350 350 350 350 349 349 349 349 349 349 349 349 349 348 348 348 348 348 347 346 345 345 348 352 352 352 354 355 355 354 353 353 353 353 354 354 354 354 355 355
321 320 317 317 316 321 322 320 326 325 318 319 320 324 333 332 325 333 345 346 343 342 341 340 341 343 346 349 351 351 352 350 350 351 349 348 345 343 343 343 342 343 343 343 343 344 345 346 347 348 348 348 349 349 349 349 349 349 350 350 350 349 349 349 349 349 349 349 348 348 348 348 347 347 347 347 346 346 345 346 349 351 351 353 354 355 354 353 353 353 353 354 355 355 355 355 355
317 317 315 318 320 323 324 321 320 322 322 319 320 330 337 331 328 339 346 345 343 342 341 341 341 341 343 346 347 350 351 351 351 351 350 349 346 344 343 343 342 342 342 343 343 343 344 345 346 347 348 348 349 349 349 349 349 349 349 349 349 349 349 349 349 348 348 348 348 348 348 348 347 346 346 346 345 345 345 346 347 349 351 353 353 354 355 354 353 352 353 354 354 354 354 355 355
314 313 313 316 320 322 322 322 320 322 327 323 322 333 337 330 329 339 345 344 341 341 341 341 341 339 340 343 346 348 349 352 352 350 350 350 347 345 344 343 343 342 342 342 342 343 344 344 346 347 348 348 348 349 349 349 349 349 349 349 348 348 348 348 348 348 348 348 348 348 348 347 347 346 345 345 345 343 343 345 347 348 349 351 352 354 355 355 354 352 352 353 354 354 354 354 355
312 312 312 312 315 319 321 322 319 322 329 331 334 338 333 328 330 338 345 342 337 338 340 341 341 339 338 340 343 345 347 351 352 350 350 349 348 347 344 343 343 342 342 342 342 343 343 344 345 346 348 348 348 348 349 349 349 349 349 349 348 348 348 348 348 347 347 347 347 347 347 347 346 345 345 344 344 342 340 341 345 347 348 348 350 351 353 355 355 353 352 352 353 353 354 353 354
310 311 311 310 313 320 327 325 318 322 328 329 336 338 328 327 335 340 343 341 336 336 336 338 339 339 338 338 339 341 345 349 351 351 350 349 349 348 345 344 343 342 342 342 342 342 342 343 345 346 347 348 348 349 349 349 349 349 349 348 348 348 347 347 347 347 346 346 346 346 346 345 344 344 343 343 343 341 340 340 342 345 347 348 348 349 351 353 354 354 353 353 353 354 354 353 354
Wind_Speed
12 13 13 15 12 8 2 1 1 1 1 1 2 1 2 2 1 2 4 3 3 1 1 6 8 5 3 3 5 4 2 3 3 3 3 2 15 26 21 20 20 19 20 19 18 17 17 16 14 16 16 15 15 15 15 14 14 14 14 14 13 13 12 12 12 12 11 11 11 10 10 10 10 10 10 10 10 10 9 10 11 12 12 12 13 14 14 10 9 10 9 9 10 8 9 11 12
14 15 15 13 8 4 0 1 2 1 1 1 2 2 1 2 1 3 5 3 3 2 3 8 8 4 3 6 7 5 4 4 2 3 1 8 19 21 20 21 21 21 21 20 19 18 17 16 15 16 15 15 15 14 14 13 14 13 13 13 12 11 11 11 11 11 11 10 10 10 9 9 9 10 10 11 10 10 10 10 11 12 12 12 12 14 15 12 8 7 8 9 10 9 9 11 12
17 16 15 10 3 1 1 2 2 1 0 2 3 2 1 2 2 2 3 2 4 5 6 8 6 3 3 5 3 2 2 2 4 3 5 14 15 16 23 22 22 22 21 20 19 19 18 17 16 16 15 15 14 13 13 13 13 12 11 11 10 10 10 10 10 10 10 10 9 9 8 8 9 9 10 11 10 10 10 10 11 12 13 12 11 13 15 15 11 8 8 9 10 10 11 11 11
19 16 13 6 1 1 1 2 1 2 1 2 2 1 1 1 3 4 3 4 6 7 6 7 4 1 1 5 1 2 3 2 5 5 7 13 15 22 26 23 23 21 21 20 19 19 18 17 16 16 15 14 14 13 12 12 11 10 10 9 9 9 9 8 8 9 9 9 8 8 8 7 8 9 10 12 11 11 11 11 11 12 13 12 12 12 14 15 14 10 8 9 9 10 11 12 11
18 14 7 1 1 1 1 1 1 2 2 2 2 2 0 2 4 4 3 5 5 5 5 5 3 1 1 3 1 2 3 5 6 8 10 12 19 28 26 25 24 21 21 20 20 18 17 18 16 16 15 14 13 12 12 11 10 9 8 8 8 8 7 7 7 8 8 8 8 8 7 7 8 9 11 11 10 11 12 11 12 12 12 13 12 12 13 14 15 13 10 9 10 11 11 12 12
15 10 2 3 1 0 0 1 1 2 3 2 2 1 0 2 4 4 5 5 3 2 3 4 4 3 3 3 2 2 4 6 7 10 13 17 24 28 26 26 24 23 22 20 20 19 18 17 16 16 15 14 13 12 11 10 9 9 8 8 8 7 6 7 7 8 8 8 7 7 6 6 7 9 10 11 11 11 12 12 12 11 12 13 12 12 12 13 14 13 11 11 12 13 12 12 13
11 5 1 0 1 0 0 2 2 2 3 3 2 1 2 2 3 5 6 4 3 1 2 4 6 6 3 1 3 3 3 8 10 13 19 24 28 28 26 26 24 24 22 21 20 19 18 17 16 15 14 14 13 12 11 10 9 9 9 8 7 6 6 7 7 8 8 7 7 6 7 7 8 9 10 12 11 10 11 12 11 11 13 13 12 13 12 13 13 11 11 12 13 14 13 12 12
7 2 1 1 1 0 1 2 3 2 2 3 2 2 4 4 4 5 6 4 3 2 3 5 6 5 2 2 3 3 6 10 12 17 25 29 29 27 27 25 25 24 22 22 21 19 18 16 16 15 14 14 13 12 11 10 10 9 9 8 7 6 7 7 7 8 7 6 6 6 6 7 8 9 10 12 11 10 11 11 12 12 13 12 12 13 12 12 11 11 11 11 12 13 13 13 13
3 1 1 0 0 1 2 3 3 2 3 3 2 2 4 5 5 6 5 3 4 4 5 5 3 4 3 5 4 3 8 13 17 22 28 30 29 27 26 25 25 24 22 21 20 19 18 17 16 15 15 14 13 12 11 10 9 9 8 7 7 7 7 8 8 8 7 6 6 6 6 7 8 8 10 11 11 9 10 11 12 12 12 12 12 12 12 11 11 11 11 11 12 11 12 14 15
1 1 0 1 1 1 2 3 2 2 3 4 3 4 5 4 5 6 4 4 5 5 5 5 6 6 6 6 3 2 9 19 23 25 27 30 29 26 25 24 24 24 23 21 20 19 18 17 16 15 14 14 13 11 11 10 9 9 8 8 7 7 7 8 8 8 7 6 6 6 7 7 7 7 9 10 11 9 9 10 11 11 12 12 11 11 11 11 10 11 11 12 12 11 12 14 15
1 1 0 1 1 2 2 2 3 2 2 3 2 3 4 4 5 4 2 5 6 6 6 5 6 7 8 5 2 5 15 23 25 25 26 28 27 24 23 22 23 23 22 21 20 19 18 16 15 14 13 13 13 11 11 10 10 9 9 8 7 7 8 8 8 8 7 6 6 6 7 7 7 7 8 9 10 9 9 9 10 10 11 11 10 10 10 10 10 10 11 11 11 11 12 13 14
0 1 1 0 1 2 2 4 4 1 3 3 2 3 3 4 5 4 3 5 7 7 4 4 6 6 7 4 3 9 17 21 23 25 26 26 24 23 22 22 22 21 21 20 19 18 17 15 14 13 12 12 12 11 10 10 10 10 9 9 8 8 7 7 8 8 8 7 6 6 6 7 7 7 8 8 9 9 8 9 9 9 10 10 10 10 9 10 9 10 11 10 10 11 11 12 13
0 1 1 0 1 1 3 4 4 1 3 1 3 5 4 3 3 3 3 6 8 7 4 6 8 5 6 5 5 9 12 18 23 25 25 24 23 21 21 21 21 21 20 20 19 18 16 14 13 13 11 11 11 10 10 10 10 10 10 9 8 8 7 7 8 8 7 7 6 6 6 6 7 7 8 8 8 8 8 8 9 9 9 9 9 9 9 9 9 9 10 9 10 11 11 11 12
1 1 1 0 2 2 4 2 3 2 2 2 4 5 3 2 2 1 3 8 6 4 7 8 9 7 6 6 5 6 10 20 25 24 24 22 22 21 20 20 20 20 20 19 18 17 15 14 13 12 11 11 11 10 11 11 10 10 9 9 8 8 7 7 7 7 7 7 7 6 6 6 7 7 8 8 8 8 7 8 9 8 8 8 8 9 9 8 8 8 9 9 10 11 10 11 11
2 1 0 1 2 2 3 1 2 3 3 4 4 4 4 3 3 3 2 6 2 2 8 8 6 5 5 6 5 7 15 24 25 24 23 21 21 20 20 20 19 19 19 19 17 16 15 14 13 12 11 11 11 11 12 11 10 9 9 9 8 7 7 7 7 6 7 8 7 6 6 6 8 8 8 8 8 8 8 8 8 8 8 8 8 8 8 8 8 8 8 9 11 10 9 10 11
2 1 0 1 2 2 2 1 1 1 2 4 5 4 6 4 3 3 2 2 3 3 5 5 4 2 6 5 6 15 23 27 25 24 23 22 21 19 19 19 18 18 18 18 16 16 15 14 14 12 12 12 11 11 11 11 10 9 9 9 8 7 7 7 6 6 6 7 7 6 5 6 7 8 8 8 7 8 8 7 7 7 8 7 7 7 8 8 8 8 8 10 11 10 9 9 10
0 1 1 2 1 2 1 2 1 2 3 6 6 4 6 4 2 1 2 2 5 5 3 3 1 2 7 8 15 26 28 27 26 25 23 22 21 19 19 18 18 17 17 17 15 16 15 14 14 12 12 12 11 11 11 10 10 9 9 8 8 7 7 7 6 6 5 5 6 6 6 6 6 8 8 7 7 8 9 8 6 7 7 7 7 8 8 8 8 8 8 10 10 10 9 9 10
1 1 1 2 2 2 2 1 1 3 5 7 7 5 7 7 3 1 1 4 5 4 4 5 6 7 12 18 25 29 27 27 26 25 21 20 19 18 18 18 18 17 17 17 16 16 15 14 14 13 13 12 11 11 11 10 10 10 9 8 8 7 7 7 7 6 6 5 6 6 6 6 6 6 8 7 7 9 9 7 6 7 7 6 7 8 8 7 7 8 8 9 10 9 9 9 9
2 1 0 2 3 2 1 2 2 2 4 7 5 4 6 7 5 2 3 5 5 6 6 7 10 10 14 21 26 25 26 26 24 23 20 18 18 17 17 17 18 18 18 17 17 16 15 15 14 15 14 13 12 11 11 10 10 10 9 9 7 7 7 7 7 7 7 6 6 6 6 7 6 6 7 7 7 9 9 8 8 9 7 6 7 8 8 7 7 7 7 8 9 9 8 8 8
3 1 1 3 4 2 1 3 3 2 5 8 5 4 4 4 4 1 5 7 5 7 7 8 11 11 14 17 21 22 23 23 22 21 19 18 18 18 18 18 17 18 18 18 17 16 15 15 15 15 15 13 12 11 11 10 10 10 9 8 8 8 8 8 7 7 7 6 6 6 6 7 6 6 6 6 7 8 8 8 9 9 7 7 8 8 8 7 7 7 6 7 8 8 7 7 6
2 3 3 3 2 1 2 2 4 5 6 6 6 6 5 4 2 2 8 8 3 5 6 9 12 14 16 16 18 20 20 20 21 19 18 18 18 18 19 19 19 18 18 17 17 16 15 16 16 16 15 14 13 12 11 10 10 10 9 8 9 9 8 8 7 7 7 6 6 6 7 7 7 7 6 6 7 7 8 8 8 8 6 7 8 8 8 7 7 6 5 6 6 6 6 6 5
2 4 5 5 3 2 1 3 6 6 6 5 6 7 5 4 2 3 9 7 3 3 6 11 13 16 17 17 17 17 17 17 18 18 18 18 18 18 18 19 19 18 18 17 17 17 16 17 17 17 16 15 14 13 12 11 11 11 10 9 9 9 8 8 7 7 7 6 6 7 7 7 7 7 6 7 7 6 7 7 7 7 7 8 7 7 8 7 6 5 5 5 5 5 5 5 4
3 4 5 7 5 3 1 4 6 7 7 7 6 5 5 5 3 4 6 3 2 2 6 13 14 17 20 19 17 15 15 15 16 19 19 19 19 19 20 20 19 20 19 18 18 17 17 17 18 17 16 16 15 14 12 12 12 11 11 10 10 9 9 8 7 7 7 7 7 7 7 7 7 7 6 7 7 6 6 6 6 7 7 7 7 7 7 6 5 5 5 4 4 4 4 5 4
5 5 6 6 6 5 4 5 6 6 8 6 6 6 5 7 5 5 4 2 3 3 5 13 15 18 19 16 15 14 14 14 16 18 19 20 21 21 21 21 20 21 20 19 18 18 18 17 18 18 17 17 15 15 13 13 13 12 11 11 10 9 9 8 8 7 7 7 7 7 7 7 7 7 6 6 7 6 5 5 5 6 7 7 6 6 6 6 5 4 4 3 3 3 3 3 3
7 8 7 4 4 5 6 6 6 6 6 5 6 6 4 4 4 5 4 2 3 3 5 12 15 16 15 14 15 13 12 14 15 17 18 18 20 20 20 20 20 20 20 20 19 18 18 18 18 19 18 18 16 15 14 14 14 13 12 12 11 10 9 9 8 7 7 7 7 6 6 6 6 6 6 6 6 6 5 5 5 6 6 6 6 5 5 4 3 3 3 2 2 2 1 1 1
7 9 7 5 4 6 8 7 7 5 5 6 7 5 2 3 4 4 4 3 4 4 6 13 15 15 13 13 14 13 12 14 16 17 17 18 19 20 20 20 20 20 21 20 20 19 18 19 20 20 19 18 17 16 16 15 15 14 13 12 11 10 10 9 9 8 7 7 7 7 6 5 5 5 5 5 5 5 4 4 5 5 5 4 4 3 3 3 2 2 2 2 1 1 1 1 1
4 5 6 8 5 7 9 8 7 5 5 7 8 4 2 3 2 2 3 4 5 5 7 13 15 14 13 13 12 12 13 14 17 17 16 17 19 20 20 21 21 21 21 21 22 21 20 20 20 20 20 19 18 17 17 16 16 15 14 13 12 11 10 10 9 8 8 8 7 7 6 5 5 5 5 5 4 4 4 4 4 4 3 2 2 1 2 2 3 3 3 3 2 0 1 1 2
6 5 4 4 1 6 7 8 8 5 4 6 9 5 1 2 2 3 6 5 6 7 8 13 15 13 12 13 12 11 12 15 18 18 17 18 20 21 22 22 22 21 22 22 22 22 21 21 21 21 20 19 19 19 18 17 16 16 15 14 13 12 11 10 9 9 9 8 8 7 7 6 6 5 5 4 4 4 4 4 4 3 2 2 1 1 2 3 4 4 4 4 3 1 1 1 1
6 4 2 3 6 6 5 6 7 5 3 7 10 4 3 5 3 3 8 7 6 7 8 12 14 12 11 12 11 9 12 16 18 18 19 21 22 23 24 24 24 22 22 23 22 22 22 22 22 21 21 20 20 20 19 18 17 17 16 15 14 13 12 11 10 9 9 8 8 7 7 7 6 6 5 4 4 4 4 4 4 4 3 3 3 3 3 4 4 5 5 4 3 2 2 1 1
4 2 3 3 4 3 5 4 6 4 4 9 7 1 4 7 4 4 8 9 8 8 9 11 13 11 11 11 10 10 12 16 17 18 20 21 22 23 24 24 24 23 22 22 23 23 22 22 22 22 21 21 21 20 19 18 18 18 17 15 14 14 13 12 11 9 9 9 8 8 8 8 7 7 6 5 5 4 4 4 4 4 4 4 5 5 5 5 5 5 5 5 4 3 3 2 1
1 2 2 2 2 2 4 4 6 3 3 9 4 2 3 5 5 6 7 10 10 11 10 11 12 11 10 11 11 10 12 16 18 21 22 22 23 23 23 23 24 23 22 23 23 23 22 22 22 22 22 22 21 20 20 19 19 19 18 16 15 14 13 13 11 10 10 9 9 9 9 9 8 8 8 7 7 6 6 6 6 6 5 5 5 5 5 5 6 6 5 5 4 3 3 2 3
2 1 2 2 2 2 3 5 7 4 3 8 3 1 3 4 6 8 7 8 9 11 12 11 13 13 11 11 12 11 11 15 19 21 22 23 24 24 24 24 24 24 23 23 23 23 23 22 22 22 22 22 22 21 20 20 19 19 18 17 16 15 14 13 12 11 10 10 10 9 10 10 10 9 9 9 8 8 7 8 8 7 6 6 5 5 5 5 5 6 5 5 4 4 4 3 2
3 2 2 2 3 2 3 5 6 5 6 7 5 2 2 3 5 8 8 9 9 10 12 12 14 15 13 10 11 11 10 12 15 19 23 24 24 25 26 26 26 26 25 24 24 24 24 23 23 22 22 23 22 21 20 20 20 20 18 17 16 15 15 14 13 12 12 11 11 10 10 10 11 10 10 9 8 8 8 8 8 6 5 5 5 5 6 6 5 5 5 4 4 4 5 4 3
3 2 1 1 2 2 3 4 6 6 8 8 7 4 4 3 4 8 9 11 10 10 12 13 13 13 12 10 11 11 11 11 12 17 24 25 25 26 27 27 27 27 26 25 25 25 25 24 24 23 22 22 22 21 20 20 20 19 18 17 17 16 15 14 14 13 13 12 11 10 10 10 10 10 9 8 7 7 7 7 6 6 5 5 6 6 7 7 6 5 4 5 4 5 5 4 4
1 2 2 2 2 1 2 3 5 8 7 6 6 7 9 5 4 7 9 11 11 11 12 11 12 13 12 11 11 11 12 12 14 20 26 27 27 27 27 27 28 27 26 26 26 25 25 25 24 24 22 22 22 21 20 20 20 20 19 18 17 17 16 15 15 14 13 12 11 11 10 10 10 9 8 7 7 7 7 6 6 6 5 5 6 6 7 7 6 5 5 5 5 4 4 4 5
5 3 3 1 2 2 3 2 5 10 7 5 8 9 12 7 5 8 9 10 11 11 11 10 10 12 12 11 11 12 13 13 16 22 26 27 27 28 27 28 28 28 27 27 27 26 25 25 24 24 23 23 22 22 21 21 21 20 20 20 19 19 17 16 16 15 14 13 12 12 11 10 9 9 7 6 7 7 7 6 6 5 5 6 6 6 7 6 6 5 4 4 4 4 4 5 5
3 2 2 2 1 3 4 3 5 10 6 6 11 10 9 6 5 8 8 8 10 11 11 11 11 11 11 12 12 13 13 12 16 22 25 27 27 28 28 28 28 27 27 27 28 28 27 26 26 26 25 24 23 24 23 23 23 22 21 22 21 20 18 17 17 17 16 15 14 13 12 10 10 9 8 7 7 7 7 6 5 5 5 6 7 6 6 6 6 5 4 4 4 4 4 4 4
1 1 0 1 2 4 5 3 4 8 6 5 7 7 8 5 5 7 8 9 11 13 13 13 13 11 10 12 13 13 11 10 13 17 22 26 26 27 27 27 28 28 27 28 29 30 29 28 27 27 26 25 25 25 25 25 24 23 22 22 21 20 19 18 17 16 15 15 14 13 12 11 11 10 8 8 8 8 7 5 5 5 6 6 7 7 7 7 6 5 4 4 4 3 3 3 4
2 1 1 2 2 3 4 4 3 5 6 3 4 7 7 5 5 7 9 10 9 10 12 12 12 11 10 12 13 12 10 10 12 14 19 24 25 27 27 26 28 30 30 30 30 30 30 29 29 29 28 27 26 26 26 25 24 23 22 21 20 19 19 18 16 15 14 14 13 13 13 12 12 10 10 10 9 8 7 6 5 6 6 6 7 7 7 7 6 5 4 4 3 3 3 4 5
2 2 2 2 2 1 2 4 4 2 2 1 4 5 4 2 4 7 10 10 7 7 9 9 10 11 11 12 11 11 13 12 13 13 15 21 24 25 26 26 28 29 29 30 31 30 30 31 31 30 30 29 28 27 27 26 23 21 20 19 18 18 17 16 16 16 15 14 13 14 14 13 13 11 11 11 10 9 8 6 6 7 7 7 7 7 7 6 5 5 5 4 3 3 4 4 5
2 4 4 3 2 3 4 3 2 3 2 1 4 2 4 2 5 5 7 8 7 7 8 9 10 10 9 8 9 11 13 12 13 13 13 17 21 24 26 27 28 28 28 30 32 32 31 32 32 32 32 31 30 29 27 26 23 21 20 17 16 17 16 16 17 18 17 16 15 14 15 14 14 13 12 11 10 9 8 8 7 8 8 8 8 7 6 5 6 6 6 5 4 4 4 4 5
3 3 7 7 5 6 4 1 2 4 3 3 3 2 5 3 5 6 6 8 9 8 10 12 11 11 9 9 9 9 11 11 13 13 13 16 20 23 26 28 28 28 30 32 33 33 32 32 33 33 32 32 31 30 28 27 25 23 22 20 18 18 18 19 19 20 19 18 16 15 15 15 15 14 12 11 10 9 9 9 9 9 9 9 8 7 7 7 7 7 6 6 5 4 4 4 5
2 4 8 10 8 6 4 3 2 1 2 4 2 2 3 4 4 6 6 8 10 9 11 13 12 11 11 10 10 9 10 11 11 12 13 16 20 23 24 27 28 29 31 32 33 34 34 33 33 33 33 33 32 31 30 29 27 25 25 25 24 22 22 22 22 21 19 18 16 15 15 15 15 15 13 12 11 10 9 9 9 9 10 10 10 9 9 8 8 7 7 7 6 5 4 4 5
3 5 6 8 7 6 6 5 4 3 2 3 1 3 1 4 4 5 7 7 8 9 11 12 12 12 13 12 12 11 11 12 12 12 13 15 20 23 24 27 29 30 31 32 32 33 34 34 34 34 34 33 33 32 31 31 29 28 27 27 26 25 24 23 22 20 19 18 18 17 16 15 15 15 15 14 12 11 10 10 10 10 11 11 11 10 9 9 9 9 8 8 8 6 5 5 5
5 6 7 7 7 6 5 6 4 2 0 3 3 2 1 4 4 2 8 7 9 13 14 13 13 14 14 14 14 14 12 12 13 14 14 16 21 25 27 29 30 32 32 32 33 34 34 34 34 34 34 34 33 33 32 32 32 31 30 29 27 25 24 23 22 20 19 19 19 19 18 17 16 16 16 15 14 12 11 10 10 10 10 11 11 10 9 9 9 10 9 9 9 7 5 5 6
4 5 5 2 3 4 3 5 4 2 2 4 5 4 2 4 4 1 6 7 11 13 12 13 13 14 15 14 15 15 12 11 13 14 15 19 24 27 29 30 31 32 32 33 34 33 34 33 32 33 34 34 33 33 33 33 33 32 31 31 29 27 24 22 22 21 20 21 21 21 21 19 18 17 17 17 16 14 13 12 11 10 10 9 9 9 9 9 9 9 10 10 10 8 6 5 6
1 3 3 3 4 3 3 1 3 3 1 6 7 8 5 2 4 4 5 5 8 10 8 10 12 13 14 14 14 15 14 11 13 14 15 21 26 27 29 30 31 31 31 32 32 32 33 33 33 34 35 34 34 34 34 34 33 33 33 33 31 29 26 23 22 22 22 22 23 23 23 22 19 18 18 18 17 16 15 13 12 11 9 9 9 9 9 8 8 8 9 10 10 9 8 6 6
2 2 4 3 2 3 4 4 2 2 4 6 4 6 5 1 4 3 4 7 7 6 8 11 15 16 16 15 15 16 15 13 13 13 14 17 20 23 26 29 30 31 31 31 32 32 33 33 33 33 34 34 34 34 35 35 34 34 34 34 32 31 28 25 25 25 24 25 25 24 24 23 21 20 20 20 19 17 16 15 13 12 11 9 9 9 9 8 8 8 9 10 10 10 9 8 6
4 4 5 4 1 2 0 1 0 3 4 4 1 4 3 3 2 4 7 10 11 8 7 9 13 16 17 16 16 15 14 14 13 13 14 14 14 18 24 27 29 30 31 32 32 32 33 33 33 33 34 35 35 35 35 36 36 35 35 34 33 32 31 29 28 27 26 26 25 25 25 24 23 22 22 21 20 18 17 16 15 14 12 10 9 9 9 9 8 8 9 10 10 10 10 10 8
4 3 5 4 2 2 2 2 0 2 4 4 1 3 1 2 0 5 8 8 10 10 9 8 8 12 15 15 15 15 14 15 14 13 14 13 14 19 24 27 29 30 32 33 33 33 33 33 34 34 35 36 36 36 36 36 37 37 36 35 34 34 33 31 30 29 28 27 26 26 26 25 24 23 23 22 20 19 18 17 16 15 13 11 10 10 10 9 9 9 9 9 9 9 10 11 10
3 2 4 3 4 4 3 3 3 3 3 3 2 3 3 3 4 3 6 7 10 12 12 11 9 7 11 12 12 13 14 14 13 14 15 14 17 22 25 27 29 31 33 34 34 35 34 34 35 36 36 35 35 36 37 37 37 37 36 35 35 35 35 33 32 31 30 28 28 27 27 26 25 23 22 20 20 19 18 18 18 17 15 13 12 11 11 10 10 10 9 9 9 9 10 11 11
2 0 4 3 3 4 2 3 5 4 3 1 1 3 2 4 4 6 11 10 13 15 15 15 15 11 5 10 11 12 13 14 13 14 15 15 19 24 26 27 30 32 33 34 35 36 36 35 36 37 37 37 37 37 37 38 38 37 36 36 35 35 35 34 33 32 31 30 29 28 28 26 25 23 21 20 19 19 19 19 18 17 16 14 13 12 12 12 11 11 10 10 10 9 10 10 11
1 3 2 2 3 4 2 1 0 3 4 2 2 1 4 2 1 10 17 15 17 18 17 16 15 15 8 6 11 12 13 14 14 15 15 15 18 23 26 28 30 32 33 35 37 38 38 36 35 36 36 36 37 38 38 38 38 36 36 36 36 36 36 36 35 34 33 31 29 28 28 27 25 24 22 20 19 19 19 19 19 18 17 15 14 13 12 13 13 12 12 11 10 10 11 11 11
2 2 1 3 2 3 2 1 2 4 3 2 2 3 5 4 1 9 19 19 19 18 17 16 15 16 14 9 7 10 14 14 15 15 15 15 17 22 26 29 31 34 35 37 38 39 38 38 37 37 36 36 37 38 37 37 37 37 36 36 37 37 37 37 36 35 34 32 30 29 28 28 27 25 23 21 19 19 19 19 19 18 17 16 15 14 13 13 14 14 13 12 11 11 11 12 11
3 2 1 1 3 1 1 2 2 2 3 1 3 3 4 4 3 9 16 17 18 17 15 16 17 17 15 14 13 11 12 13 13 13 13 13 16 21 26 29 32 35 36 37 38 38 37 38 38 38 39 39 39 39 38 37 37 37 38 38 38 38 38 37 36 35 34 33 33 32 30 29 28 26 25 23 21 20 20 19 19 19 18 17 16 15 14 14 15 16 16 14 13 11 12 12 12
4 3 4 3 2 2 1 1 2 2 2 3 1 3 3 2 4 8 12 12 14 15 14 14 15 16 14 14 15 13 11 12 12 13 14 13 16 23 28 30 32 34 35 35 36 36 37 38 38 38 38 38 38 39 39 38 38 38 37 37 38 38 38 38 36 35 34 34 35 34 32 31 30 28 27 26 24 23 22 21 20 19 19 18 18 17 16 16 16 17 18 17 15 13 14 14 13
5 5 5 5 3 2 2 2 2 2 3 3 2 3 1 3 3 5 8 10 11 12 13 13 14 15 14 14 16 14 10 13 13 13 14 14 15 21 27 29 31 32 33 34 35 37 37 37 37 38 37 36 37 37 38 38 38 38 37 37 37 38 38 37 36 35 35 35 35 35 34 32 31 30 29 28 27 25 24 23 22 21 21 20 20 19 18 18 17 18 19 19 17 16 16 15 15
5 4 4 3 3 3 3 2 3 2 2 2 3 4 2 2 3 3 6 7 9 11 11 12 15 17 16 16 17 17 11 8 12 12 12 12 13 18 23 25 27 28 30 33 34 35 36 37 37 37 36 37 37 37 38 37 37 36 37 37 37 38 38 37 36 36 36 36 36 36 34 32 32 32 31 30 30 28 26 25 24 24 23 22 21 20 20 20 20 19 20 20 19 19 18 17 17
Wind_Direction
138 145 148 140 134 127 112 75 71 346 81 308 253 256 242 175 126 147 127 146 129 72 138 125 127 126 115 133 139 115 80 140 151 144 190 241 146 151 157 163 162 153 150 146 142 135 129 130 133 135 134 134 130 128 126 125 126 127 127 128 129 129 129 127 124 119 118 117 114 113 112 113 115 116 117 118 118 116 115 117 114 116 118 116 115 115 115 115 112 118 126 123 118 116 111 107 106
147 149 144 134 128 117 47 92 93 341 58 289 246 194 222 112 151 171 145 147 115 125 133 121 115 91 77 113 122 94 46 33 97 127 119 137 140 149 159 163 161 155 150 146 143 136 133 133 136 137 135 135 132 130 129 128 129 131 131 132 133 131 130 127 123 119 117 115 112 112 113 116 118 120 121 121 120 118 115 112 111 114 115 114 115 114 114 115 114 116 123 119 118 118 107 105 109
151 148 143 137 113 67 37 58 93 106 96 271 265 205 142 121 172 136 126 93 112 128 118 119 104 74 79 101 104 79 81 42 105 110 122 143 143 152 161 162 160 155 149 146 143 137 136 137 139 139 137 137 133 132 130 130 131 133 134 135 135 131 129 126 122 118 117 114 113 113 113 114 117 121 123 122 121 118 115 113 114 113 111 111 112 112 114 118 122 119 117 115 117 113 103 103 108
150 147 143 141 73 34 63 55 121 132 169 238 273 249 162 145 130 106 92 90 125 131 123 130 100 350 95 109 120 76 105 103 123 126 139 162 160 156 160 160 158 154 148 147 144 140 139 141 143 140 138 138 134 134 133 134 134 135 136 135 134 131 129 127 122 120 119 118 115 112 110 113 116 123 125 124 125 123 121 118 112 110 109 109 108 108 111 115 119 118 112 108 105 98 98 102 105
148 149 143 23 63 66 80 122 168 163 219 211 257 276 184 119 120 112 95 100 125 134 134 132 96 309 83 92 126 115 120 109 137 149 143 167 162 156 160 159 157 153 151 149 146 144 144 144 144 142 140 139 139 140 140 139 140 140 138 137 135 134 133 129 128 126 124 120 113 110 110 113 117 123 124 124 128 124 120 112 104 107 107 106 106 103 105 107 109 113 113 109 100 93 95 98 102
147 153 166 339 130 174 138 239 215 207 250 228 247 280 136 124 121 109 104 97 80 106 121 112 112 115 83 60 48 101 149 132 150 162 150 157 159 158 161 159 156 154 153 151 149 148 148 148 145 145 144 144 146 147 148 146 145 145 142 141 141 141 140 134 133 130 123 116 110 110 108 104 108 113 117 118 118 116 115 109 104 108 107 105 103 100 99 100 103 108 110 106 100 98 97 95 102
145 149 263 308 107 327 158 268 243 232 245 234 248 182 165 150 121 111 122 120 83 63 69 110 127 106 80 86 70 57 134 140 146 159 155 153 156 159 161 159 156 155 155 153 153 152 151 150 149 149 149 150 151 151 152 151 149 147 145 146 147 146 143 140 136 130 121 114 112 108 105 103 103 107 111 112 111 111 111 108 107 107 104 103 101 100 98 97 101 104 103 100 100 102 104 107 110
153 140 341 162 88 175 188 260 238 228 221 234 255 177 179 159 137 132 146 143 126 131 101 135 131 98 51 50 86 51 91 128 142 152 151 150 155 158 160 160 157 156 156 156 155 153 153 153 153 153 154 154 153 154 154 154 151 148 151 152 151 147 142 141 136 130 123 118 116 107 102 102 103 107 109 108 109 109 106 107 111 106 101 101 100 99 98 96 97 98 98 98 101 106 111 115 115
173 227 17 301 232 217 237 247 231 213 216 224 225 202 180 156 144 146 154 129 117 119 117 142 111 100 97 66 84 60 89 125 139 143 147 150 154 156 159 161 159 157 158 158 157 156 157 159 159 157 158 157 156 156 156 155 154 155 159 157 154 150 144 141 139 135 129 125 118 108 102 100 102 104 104 104 105 106 106 110 111 106 102 100 99 98 97 96 93 93 93 95 97 100 105 108 111
184 249 340 278 215 271 263 245 234 216 218 208 212 203 170 157 148 146 138 121 127 114 109 97 72 106 113 83 77 79 118 133 136 139 146 150 152 155 157 161 161 160 160 159 159 160 160 161 163 161 160 159 158 159 159 160 161 163 161 158 155 150 148 147 146 142 135 130 120 110 101 99 103 100 100 102 104 106 107 107 106 105 102 98 97 95 96 95 91 89 88 89 91 92 95 101 108
170 204 277 297 257 281 269 270 276 258 207 186 194 165 150 155 142 137 95 119 128 112 118 90 87 112 99 87 76 115 131 135 137 140 147 149 150 154 156 160 162 162 161 160 161 162 160 160 163 162 161 161 161 162 164 165 166 163 159 159 158 154 155 152 149 145 139 133 125 112 102 99 99 100 99 101 104 108 110 107 106 105 100 97 95 94 96 95 89 86 86 84 86 88 89 97 103
163 175 119 196 271 266 267 297 298 263 159 162 155 125 130 151 141 151 122 129 131 118 131 116 135 129 93 102 114 125 131 135 141 143 146 147 148 153 156 160 162 163 162 160 161 160 159 159 159 159 163 165 163 166 167 165 164 161 160 163 162 159 157 154 152 148 144 137 128 114 106 104 100 103 101 99 101 107 111 112 111 107 104 100 98 97 97 96 90 83 84 84 82 83 85 93 98
257 197 86 174 263 276 287 305 301 242 141 104 118 130 138 138 131 159 133 129 134 129 138 136 146 130 102 119 119 133 134 138 144 144 145 145 148 152 156 159 162 164 163 162 161 159 160 158 158 160 166 167 163 167 166 162 162 162 165 168 166 161 159 160 158 151 147 139 132 120 111 108 105 109 108 103 100 104 109 111 113 110 107 103 102 102 100 99 92 81 78 80 80 81 83 88 91
220 257 96 224 289 300 301 310 305 343 90 90 109 130 140 99 77 56 121 130 127 127 128 130 133 106 114 136 132 150 142 144 146 144 144 144 148 151 154 158 161 164 164 164 163 162 162 161 162 165 169 165 164 168 167 166 165 165 168 169 167 164 164 164 159 153 149 144 136 127 122 120 114 111 109 104 100 105 110 114 115 113 109 107 106 106 104 103 97 86 78 74 75 75 76 81 84
210 309 124 250 305 305 294 291 320 10 87 124 125 130 111 65 68 34 68 130 95 106 118 122 129 101 150 167 157 164 148 147 146 143 144 143 147 150 154 157 160 164 166 167 166 166 166 165 167 170 170 168 170 171 168 169 165 165 169 169 168 166 165 161 160 160 158 151 140 135 131 126 118 112 107 105 104 106 109 114 114 112 111 109 109 108 107 106 104 97 86 79 78 77 73 75 81
210 307 290 286 302 300 266 198 340 38 123 132 136 138 104 58 42 46 340 111 109 135 113 137 172 123 165 169 141 149 146 146 145 143 142 140 144 148 152 156 160 165 168 170 170 172 171 169 172 173 170 171 173 171 169 170 165 167 170 169 166 164 165 160 160 163 165 154 140 139 136 124 118 116 110 105 108 107 104 105 107 106 107 110 112 111 108 105 104 101 93 89 89 88 81 72 75
202 246 266 307 280 284 247 179 244 155 140 140 152 154 122 101 28 58 316 37 113 131 86 131 174 61 135 131 134 142 144 145 143 141 139 139 142 146 152 156 161 167 172 175 175 177 176 173 174 173 171 169 169 171 172 172 170 169 170 169 166 166 164 159 158 159 160 150 140 140 136 128 120 119 113 110 111 107 101 98 101 101 101 108 111 110 107 105 104 101 97 95 96 96 90 78 72
196 244 221 271 239 233 223 166 165 146 145 152 162 162 137 137 141 155 75 65 100 106 80 97 61 66 106 119 133 141 143 143 142 141 139 141 144 147 153 158 163 169 176 179 180 181 180 177 175 174 172 169 169 173 172 173 175 172 172 169 165 164 158 155 157 156 159 156 150 144 138 135 126 121 116 118 116 107 105 107 110 103 100 107 110 109 107 105 102 100 98 95 95 94 94 90 84
207 281 277 250 227 224 220 136 140 140 149 151 155 157 141 140 145 162 132 125 128 112 104 102 88 92 108 121 136 144 144 143 145 144 144 147 150 152 155 161 166 173 178 181 182 184 181 178 176 175 174 171 172 174 172 173 175 175 174 166 163 162 158 159 157 157 164 163 157 149 144 139 132 128 120 119 116 110 114 121 113 101 102 108 109 109 105 103 102 101 100 97 90 85 89 94 93
198 232 259 250 230 238 258 154 153 135 148 150 146 138 126 135 145 158 137 138 139 132 136 124 119 127 127 132 142 146 145 144 147 147 148 152 156 158 158 164 171 176 179 180 182 185 182 178 177 177 175 173 174 175 173 173 173 176 171 161 164 164 161 161 158 161 165 162 157 155 152 143 137 137 131 124 117 115 119 116 105 102 112 114 111 112 111 112 114 112 107 102 89 79 80 84 87
172 198 228 259 247 252 234 162 129 128 141 142 140 133 123 131 127 140 139 138 159 159 158 143 140 143 140 144 148 149 148 147 150 151 153 155 158 162 164 169 175 178 178 179 182 183 181 179 178 177 177 175 177 177 174 176 174 172 170 166 167 164 163 163 164 168 167 164 161 160 158 149 145 144 136 127 121 121 117 109 106 113 118 114 116 118 119 122 123 119 110 108 94 82 79 76 78
268 234 246 270 288 299 244 129 127 133 127 126 147 143 129 128 100 158 155 151 174 166 151 147 145 149 149 150 150 151 152 151 154 156 157 159 161 164 167 170 173 177 178 179 181 183 183 180 179 178 178 177 180 179 174 177 175 172 174 175 172 168 169 170 172 172 170 171 167 165 161 153 151 146 134 128 129 125 116 115 115 114 111 112 119 121 123 125 123 118 115 116 100 83 75 71 79
259 257 252 254 250 255 217 136 141 138 137 150 157 132 117 134 127 167 169 143 134 96 137 147 148 153 153 150 152 155 158 159 160 162 163 163 164 166 168 171 173 177 179 181 182 183 184 181 181 181 179 180 182 180 177 178 177 177 179 179 178 175 175 177 177 177 177 177 172 169 166 160 156 150 142 138 139 135 129 133 124 112 109 111 119 126 127 124 122 123 122 121 103 85 76 69 76
229 260 261 248 231 212 183 153 152 146 148 154 141 129 145 157 147 159 167 120 118 70 127 148 148 152 152 151 155 158 160 161 162 165 167 167 168 169 170 173 176 177 178 181 183 184 186 184 184 185 183 184 184 182 180 180 180 182 183 183 182 179 180 181 181 180 181 180 174 173 173 168 162 157 153 151 149 146 145 141 128 120 115 111 120 131 131 126 126 129 127 122 103 82 74 63 61
218 244 260 249 224 190 166 149 154 151 132 122 133 138 154 150 131 152 167 149 127 80 126 147 145 150 154 156 157 157 160 161 161 164 168 171 170 169 172 176 177 179 179 181 184 186 188 187 188 189 188 187 186 184 184 183 183 184 187 187 184 184 185 183 183 184 184 184 180 179 182 176 171 172 165 163 159 152 150 142 135 131 124 118 122 131 138 139 137 143 143 133 94 54 44 44 60
219 235 254 256 230 168 155 145 153 155 127 132 142 130 109 119 114 148 169 153 127 96 135 147 149 156 158 161 161 160 163 164 164 165 168 172 170 170 175 178 180 183 182 182 186 189 190 190 191 193 191 191 190 188 188 189 187 187 191 191 188 190 189 186 188 189 189 191 191 189 191 191 187 186 178 172 168 160 154 146 145 142 134 124 121 133 154 172 185 192 193 177 139 21 9 38 92
256 250 257 263 242 164 152 146 147 141 134 141 135 125 114 124 147 186 167 151 132 115 145 153 155 162 161 163 163 163 167 167 166 165 166 170 173 175 176 180 184 186 185 184 189 192 192 192 194 195 195 195 195 193 193 193 191 191 193 194 193 194 192 190 192 194 194 195 198 198 202 207 201 199 192 183 180 174 161 154 156 154 154 150 134 146 172 206 216 216 216 197 175 101 40 72 89
295 287 306 318 72 128 139 139 147 134 136 141 124 130 165 146 246 204 155 147 143 138 155 161 161 165 164 163 163 164 169 168 167 167 170 175 178 179 179 183 185 186 188 188 191 194 194 195 197 198 198 198 199 198 198 197 195 195 196 196 196 196 195 196 198 201 200 199 200 203 210 215 211 210 208 199 193 188 177 173 181 193 217 230 218 227 220 224 224 220 216 199 175 158 115 87 84
289 285 3 40 71 107 141 134 156 146 140 149 129 129 220 212 229 149 149 147 143 151 161 166 167 168 164 164 165 166 170 169 172 177 180 181 182 181 182 186 186 186 190 191 192 193 195 197 198 200 200 201 202 201 202 201 198 198 198 198 198 200 200 203 205 207 208 207 207 209 215 219 220 221 225 224 213 209 206 202 211 224 239 253 256 253 241 233 226 222 217 205 191 181 166 125 99
293 313 97 119 69 118 160 135 162 142 131 162 152 159 232 221 210 121 150 155 150 161 170 171 171 172 166 167 169 168 173 175 178 182 184 184 184 184 184 186 188 187 189 191 192 193 195 196 198 200 201 203 204 204 206 205 202 201 200 199 202 204 204 207 211 214 216 217 218 219 221 223 227 232 239 245 242 239 239 237 237 239 247 262 266 253 242 235 226 220 214 212 218 204 184 167 155
341 7 56 116 68 155 154 142 167 125 138 175 170 303 254 238 192 147 158 166 163 169 176 175 173 176 171 170 173 172 178 181 183 183 184 186 185 186 186 186 188 188 189 191 192 193 194 195 197 199 202 204 205 206 208 208 206 204 202 202 204 206 206 209 213 218 223 226 227 229 230 232 235 243 250 255 258 259 262 263 260 258 257 262 264 249 237 235 227 219 214 220 234 221 204 190 168
25 59 331 318 61 136 141 157 182 142 160 192 189 280 274 269 180 157 159 170 174 175 180 179 177 180 176 173 176 176 181 183 184 185 186 187 186 187 187 186 188 190 192 193 193 193 193 196 198 199 202 204 206 208 210 210 209 207 207 206 207 208 208 210 215 221 228 233 237 239 240 243 247 252 258 260 262 263 265 267 266 265 260 254 253 244 234 231 225 219 219 224 232 227 225 223 193
352 85 208 269 89 134 159 166 198 155 144 199 225 230 281 269 172 152 154 171 182 182 186 185 179 182 180 175 178 179 179 180 184 187 187 187 188 188 187 188 190 192 194 194 194 193 193 196 198 200 203 204 205 207 211 213 211 211 211 210 210 210 209 212 218 224 232 238 243 247 248 251 254 256 259 260 261 262 262 264 264 260 253 241 238 237 230 224 220 218 218 217 223 229 236 243 238
325 34 116 271 118 153 164 165 198 163 147 196 222 237 266 265 155 149 159 172 184 188 191 190 182 184 183 176 179 181 180 181 187 188 188 188 189 190 189 190 191 193 195 196 197 196 195 196 198 201 205 207 206 207 211 213 213 214 215 216 214 211 212 215 221 228 234 241 247 254 257 257 257 253 251 252 253 255 254 255 255 249 244 231 227 232 225 218 218 212 203 206 219 233 240 241 241
126 59 63 343 344 55 164 177 190 167 165 192 198 234 255 257 148 158 171 174 186 192 191 193 186 185 186 179 181 184 183 188 190 188 188 188 188 190 190 190 191 193 195 197 198 198 196 197 199 200 204 208 207 207 211 213 215 218 219 220 219 217 217 220 225 231 236 243 251 259 261 259 252 241 238 240 242 245 246 246 242 241 240 229 226 228 218 213 213 204 196 204 218 229 236 235 234
128 119 117 142 326 310 227 224 194 171 169 192 189 219 239 233 176 177 180 177 189 196 191 194 191 188 188 184 185 186 188 193 191 188 188 187 188 189 190 190 191 193 195 196 197 198 197 197 198 200 204 208 208 207 210 213 216 218 221 222 221 220 220 222 227 232 239 247 253 256 257 254 239 224 222 226 230 233 234 235 233 238 240 228 223 219 209 204 202 200 196 204 215 221 228 231 231
111 107 116 167 217 286 260 260 214 176 170 211 202 216 233 219 194 190 181 178 191 197 194 196 196 192 189 187 188 189 193 193 187 187 188 188 189 189 189 190 190 191 194 195 195 198 199 198 198 199 203 207 207 206 208 211 213 215 218 220 221 219 218 222 228 234 243 250 253 249 247 243 226 212 210 214 219 221 221 222 226 236 234 222 214 204 197 194 195 199 199 207 215 219 226 232 236
114 131 34 257 197 260 263 266 240 181 182 231 204 217 239 217 192 184 174 184 198 199 196 197 198 196 190 189 191 191 193 187 182 186 188 188 188 188 188 188 188 190 192 195 196 198 199 199 200 200 202 206 208 208 208 211 213 213 215 218 219 219 219 222 228 236 244 249 246 238 237 234 219 210 206 208 212 212 213 216 219 225 222 212 203 196 193 192 195 199 201 208 212 223 239 247 248
127 125 147 236 240 285 289 306 321 178 191 263 191 203 237 222 183 173 178 194 205 207 205 200 196 198 197 192 190 188 186 184 185 187 187 188 189 188 187 188 190 191 192 195 198 199 199 199 201 202 202 206 209 210 210 211 214 215 216 218 220 220 221 224 231 239 243 243 235 228 230 227 218 212 208 208 209 207 209 212 212 213 209 205 202 199 197 194 196 200 203 206 208 241 266 261 251
154 151 157 227 260 314 287 309 354 105 181 290 173 193 259 238 171 174 184 192 197 208 215 210 201 204 206 198 190 186 185 187 189 188 187 188 189 188 188 189 191 192 192 194 197 198 198 200 202 202 203 206 209 211 211 212 213 215 217 221 223 225 227 231 235 239 240 235 227 225 227 223 217 214 210 209 209 208 207 208 211 211 207 206 206 204 203 202 205 208 209 207 219 265 282 269 245
227 188 178 191 216 206 224 261 3 40 356 345 112 67 308 228 179 187 180 180 190 195 202 210 211 210 211 206 198 191 189 189 189 189 188 188 188 189 190 192 192 192 193 194 197 198 199 201 202 203 203 206 209 210 211 212 212 211 213 216 221 225 229 231 230 231 232 228 223 224 223 220 217 215 213 210 210 211 211 211 214 212 208 207 210 212 213 217 223 222 220 218 236 273 282 263 232
292 221 193 186 200 218 222 201 66 36 340 264 125 62 299 253 201 201 170 172 191 190 195 206 209 206 208 211 207 198 193 192 191 191 188 187 190 191 192 193 192 193 195 197 198 199 201 203 203 204 204 206 208 209 210 210 210 208 206 206 209 213 218 222 223 225 226 223 223 224 223 220 218 217 217 213 212 214 214 216 216 213 209 207 211 219 220 222 227 229 229 230 241 266 274 246 224
292 243 196 186 197 207 194 163 131 86 267 258 174 152 279 295 239 210 175 180 193 189 199 206 205 203 206 210 210 202 196 195 195 193 188 188 191 192 194 194 193 195 198 199 199 201 202 203 204 204 205 206 208 208 208 208 208 208 207 208 209 210 213 219 224 226 226 225 226 226 226 224 220 220 221 218 218 218 217 218 216 215 214 212 217 223 223 224 228 231 233 235 242 253 262 246 230
236 238 177 173 194 199 187 172 181 214 255 322 11 135 271 301 264 203 164 177 202 205 209 207 203 204 205 210 211 208 201 195 194 195 193 192 192 193 195 195 196 198 199 199 199 201 202 203 204 205 206 207 208 208 208 208 208 209 210 211 213 214 216 220 224 226 228 230 231 230 230 228 224 223 224 224 222 221 222 221 219 220 220 220 223 225 225 228 230 231 229 231 238 246 257 255 241
236 217 171 170 181 179 173 174 197 222 41 317 292 140 172 279 285 167 154 178 211 215 214 208 203 203 205 209 211 212 208 199 196 197 197 196 194 195 196 196 198 200 200 200 201 202 203 204 204 205 206 206 207 208 208 209 209 210 211 212 213 215 218 221 223 225 229 232 233 234 233 231 228 226 226 226 226 226 227 227 226 227 225 225 227 228 229 229 228 228 226 228 233 242 257 262 254
221 175 162 132 121 129 134 163 170 93 99 251 238 177 173 276 294 145 162 200 218 216 216 211 206 204 204 208 210 211 212 204 200 199 199 199 198 197 197 197 199 200 200 201 202 202 202 203 203 204 206 206 207 207 208 209 210 210 211 213 214 215 215 219 222 224 228 231 231 232 233 232 230 228 226 225 226 228 229 230 230 230 230 231 231 232 230 227 225 223 225 228 230 239 254 266 265
169 121 112 50 36 54 60 89 106 87 255 253 222 183 160 298 281 212 188 227 225 212 211 209 210 210 207 207 208 209 210 207 202 201 201 202 201 198 196 197 199 200 200 201 201 202 202 202 202 204 206 206 206 207 207 209 209 209 211 213 215 216 215 216 218 222 225 226 226 228 229 230 230 229 226 224 224 226 228 229 228 228 231 232 233 233 230 229 227 224 226 227 228 234 246 263 268
98 123 117 103 355 25 34 5 56 133 250 270 232 164 136 202 268 271 303 318 303 243 215 205 204 207 208 206 206 205 206 205 201 201 201 200 199 196 194 196 198 198 198 200 200 201 201 201 202 203 205 205 205 206 206 207 208 209 210 213 215 217 218 218 218 221 224 223 223 225 225 226 228 228 227 225 224 223 224 225 224 224 225 228 231 232 231 232 232 229 226 224 226 231 239 253 263
67 101 103 106 12 28 103 283 142 197 243 274 226 128 126 214 244 356 353 346 338 312 265 234 214 209 208 206 204 203 203 202 200 200 199 197 195 193 193 195 196 196 197 198 199 200 201 201 201 202 204 205 205 205 206 206 207 208 210 213 215 217 219 221 220 222 224 225 224 224 223 223 225 225 225 226 225 223 224 224 222 222 222 226 230 230 230 232 233 232 228 224 227 232 239 247 253
26 106 118 122 129 119 193 225 106 214 244 294 297 162 212 256 19 6 7 5 353 346 334 307 257 225 213 209 206 203 202 202 199 198 197 197 195 193 193 194 194 196 198 198 198 199 200 201 201 202 204 205 204 204 205 206 207 208 210 213 216 217 219 221 222 222 223 226 227 226 226 225 226 226 226 227 225 224 225 224 223 224 224 226 228 230 230 229 231 233 232 231 233 238 242 243 246
318 182 130 119 146 145 182 203 162 178 223 327 352 185 202 162 144 31 17 10 3 3 357 349 331 268 219 209 210 205 204 204 201 200 198 196 195 194 193 193 194 196 197 197 198 199 200 201 201 202 203 204 204 205 205 206 207 208 210 212 215 218 220 221 222 223 224 226 228 230 230 230 231 231 231 230 228 227 227 225 225 226 227 228 229 230 230 229 230 234 238 242 243 246 247 245 243
275 113 86 90 153 152 155 179 172 162 139 77 190 202 226 179 157 25 16 11 10 6 358 0 356 335 252 204 204 206 207 205 202 202 200 197 194 193 193 193 194 195 196 196 198 199 200 201 202 202 203 203 204 205 206 207 208 209 210 212 215 218 220 222 223 224 224 226 229 231 232 234 236 236 236 235 233 232 231 228 227 228 230 231 232 233 232 230 231 235 241 249 254 257 256 253 248
259 48 74 205 170 139 126 178 224 71 114 170 245 298 335 300 182 7 6 7 10 7 359 357 352 347 335 229 207 205 206 206 205 203 200 197 193 193 194 194 194 194 195 197 198 200 200 200 201 202 203 204 204 206 207 208 208 209 211 212 215 217 219 222 224 224 225 226 229 231 233 236 238 238 237 236 236 237 236 234 233 232 232 234 237 238 236 233 232 236 243 251 260 265 263 260 256
99 73 274 250 127 114 111 122 16 40 127 204 1 49 17 10 288 353 3 6 4 2 357 352 350 354 351 326 270 225 210 208 209 205 200 198 193 193 194 194 195 195 195 197 199 200 201 201 202 201 202 204 205 207 208 208 208 209 211 213 214 217 219 222 225 226 226 227 229 231 233 236 238 239 237 236 238 240 241 241 239 237 235 236 239 241 241 239 236 236 241 250 259 264 265 264 262
79 113 311 60 109 118 19 100 138 103 154 174 17 40 41 31 333 352 7 6 360 358 357 357 355 352 347 336 317 275 229 212 211 207 203 200 195 193 193 194 196 196 196 197 198 198 200 202 203 203 204 205 206 207 208 209 210 210 212 214 215 217 219 221 224 227 228 228 230 232 234 237 238 239 237 236 238 242 245 246 245 243 241 241 242 244 245 246 243 240 241 247 254 260 266 266 263
25 37 10 29 108 150 61 89 145 144 158 165 61 24 24 356 327 360 9 4 4 2 359 2 357 348 343 337 325 299 251 219 210 207 205 203 199 196 194 195 195 195 196 196 195 197 199 201 203 204 205 205 206 206 207 208 210 211 212 214 216 218 219 221 224 226 228 230 231 233 236 238 238 238 239 238 239 243 246 248 248 248 246 246 246 247 248 248 249 246 243 245 251 257 264 267 263
14 31 22 3 348 11 62 38 45 103 136 159 119 73 22 305 327 1 359 2 13 9 3 8 5 355 348 342 337 322 273 227 212 207 205 204 202 199 197 197 195 194 193 193 194 196 199 200 202 203 204 204 205 206 207 208 210 211 212 213 215 217 219 221 223 225 229 231 232 234 236 239 239 239 241 241 242 245 247 248 249 249 249 249 249 249 249 250 251 249 246 246 250 255 261 264 262
56 60 29 346 337 42 84 51 354 37 100 138 134 126 175 290 1 3 349 2 12 9 9 13 13 10 3 353 350 346 327 256 223 213 207 204 202 199 197 196 194 192 191 192 193 195 197 199 201 203 203 204 205 206 207 209 210 211 213 214 216 217 218 220 221 223 227 230 232 234 236 238 239 240 242 243 244 246 248 248 247 247 248 249 250 251 250 250 251 250 248 247 249 253 257 260 259